Showing default

OPS 9332 (IDSCS 17), 2863

Orbit data source: Space-Track

OPS 9332 (IDSCS 17), 2863 is a payload satellite owned by SAMSO (US) in GEO that was launched on Sat, 01 Jul 1967 UTC via a TITAN IIIC launch vehicle from the Air Force Eastern Test Range (AFETR). Payloads include a variety of satellites, spacecraft, and rockets equipped with specific instruments for various scientific and technological missions. These include communications satellites like Starlink; space stations such as the ISS; scientific satellites like the Hubble; Earth observation satellites from companies like Planet Labs, Umbra, and HawkEye 360; GPS; miniature CubeSats for education and research; and military/defense satellites.

Not visible in the next 10 days
OPS 9332 (IDSCS 17) details
Identifier
2863, 1967-066B
Orbit
GEO
Last TLE update18 hours ago
Origin
Flag of USSAMSO (US)
ManufacturerPhilco-Ford WDL
MissionNon-operational Defense Communications
Bus & MotorIDCSP, Unknown motor
Mass45 kg wet, 45 kg dry
Launch date (UTC)
1967-07-01 (57 years ago)
Launch vehicle
TITAN IIIC
Launch site
Air Force Eastern Test Range (AFETR)
Object type
Payload
Rocket body
Debris
Shape & HBRPoly, 0.9 m
Radar Cross Section0.926 m², Medium (>0.1 m² and < 1m²)

Expand to show TLE details & history

TLE from 18 hours ago
0 OPS 9332 (IDSCS 17)
1 02863U 67066B   24355.74354787 -.00000060  00000-0  00000-0 0  9995
2 02863   1.6287 115.3089 0062656 210.1132 160.5853  1.09896755118757
Epoch: 2024-12-20T17:50Z
Definitive object data (Epoch: 2024-12-20T17:50:42.535Z)
Latitude0.32591°
Longitude128.7598°
Altitude33,521.267 km
Speed3.151 km/s
True Right ascension08h 24m 58s
True Declination0° 19' 32"
Sunlit
Object was in daylight at TLE epoch
Visualization TLE readout
Latitude-1.25085°
Longitude66.91044°
Altitude33,324.927 km
Speed3.167 km/s
Apparent Right ascension03h 50m 22s
Apparent Declination-6° 53' 60"
Sunlit
Object is in daylight
Visualization observer readout
Local Sidereal Time10:55:48
Azimuth275.237° WNW
Elevation-16.953°
Doppler factor1
Orbital elements
Apogee altitude33,536.939 km
Perigee altitude33,039.87 km
Semi-major axis39,666.542 km
Eccentricity0.0062656
Inclination1.6287°
RAAN115.3089°
Arg. of periapsis210.1132°
True anomaly160.82221°
Mean anomaly160.5853°
Eccentric anomaly160.70393°
Mean motion0.27473 °/min
BSTARUnknown
Orbital period1310.38 mins
Loading historical data...
2863 neighbors
Authenticating...
Loading maneuver chart data...
Loading historical data...
Loading historical data...
Loading historical data...
Loading historical data...
Loading historical data...
Loading historical data...
Loading historical data...

OPS 9332 (IDSCS 17) Visibility forecast

Observer location: undefined°, undefined

OPS 9332 (IDSCS 17) is not visible in the next 10 days
Span
Click to sort rows by Start time (UTC) header in descending order
Start Az.
Max El. time (UTC)
Max El. Az.
Max El.
End time (UTC)
End Az.
|